Change the Weather History Date:

Friday, April 26, 2013

  Actual Average (KPPA) Record (KPPA)
Temperature  
Mean Temperature 67 °F -  
Max Temperature 81 °F 74 °F 91 °F (1989)
Min Temperature 54 °F 46 °F 33 °F (2011)
Cooling Degree Days 2    
Growing Degree Days 17 (Base 50)    
Moisture  
Dew Point 46 °F    
Average Humidity 57    
Maximum Humidity 90    
Minimum Humidity 31    
Precipitation  
Precipitation 0.00 in - - ()
Sea Level Pressure  
Sea Level Pressure 30.01 in    
Wind  
Wind Speed 11 mph (SE)    
Max Wind Speed 26 mph    
Max Gust Speed 36 mph    
Visibility 10 miles    
Events Rain    
Averages and records for this station are not official NWS values.
T = Trace of Precipitation, MM = Missing Value Source: NWS Daily Summary

Daily Weather History Graph

Daily Weather History Graph

Search for Another Location

Airport or City:

Trip Planner

Search our weather history database for the weather conditions in past years. The results will help you decide how hot, cold, wet, or windy it might be!

Date:

Astronomy

Apr. 26, 2013 Rise Set
Actual Time 6:54 AM CDT 8:24 PM CDT
Civil Twilight 6:27 AM CDT 8:51 PM CDT
Nautical Twilight 5:55 AM CDT 9:24 PM CDT
Astronomical Twilight 5:20 AM CDT 9:58 PM CDT
Moon 9:46 PM CDT (4/26) 7:25 AM CDT (4/26)
Length of Visible Light 14h 24m
Length of Day
13h 30m
Full, 99% of the Moon is Illuminated
Apr 26
Full
May 2
Last Quarter
May 9
New
May 17
First Quarter
May 24
Full

Hourly Weather History & Observations

Time (CDT) Temp. Dew Point Humidity Pressure Visibility Wind Dir Wind Speed Gust Speed Precip Events Conditions
12:15 AM 55.9 °F 31.8 °F 40% 30.06 in 10.0 mi SSE 8.1 mph - N/A   Scattered Clouds
12:35 AM 55.9 °F 32.5 °F 41% 30.06 in 10.0 mi SE 9.2 mph - N/A   Scattered Clouds
12:55 AM 56.1 °F 33.8 °F 43% 30.06 in 10.0 mi SE 8.1 mph - N/A   Scattered Clouds
1:15 AM 55.4 °F 34.3 °F 45% 30.05 in 10.0 mi SE 9.2 mph - N/A   Scattered Clouds
1:35 AM 54.9 °F 35.6 °F 48% 30.05 in 10.0 mi ESE 10.4 mph - N/A   Scattered Clouds
1:55 AM 56.3 °F 35.8 °F 46% 30.03 in 10.0 mi ESE 10.4 mph - N/A   Mostly Cloudy
2:15 AM 57.0 °F 36.5 °F 46% 30.02 in 10.0 mi SE 10.4 mph - N/A   Overcast
2:35 AM 57.4 °F 36.7 °F 46% 30.02 in 10.0 mi SE 9.2 mph - N/A   Overcast
2:55 AM 57.2 °F 37.2 °F 47% 30.00 in 10.0 mi SE 10.4 mph - N/A   Overcast
3:15 AM 56.5 °F 37.6 °F 49% 30.00 in 10.0 mi ESE 6.9 mph - N/A   Overcast
3:35 AM 56.5 °F 37.9 °F 50% 29.99 in 10.0 mi ESE 6.9 mph - N/A   Overcast
3:55 AM 57.2 °F 38.5 °F 50% 30.01 in 10.0 mi ESE 4.6 mph - N/A   Overcast
4:15 AM 56.5 °F 39.0 °F 52% 30.02 in 10.0 mi North 4.6 mph - N/A   Overcast
4:35 AM 56.8 °F 39.0 °F 51% 30.03 in 10.0 mi ENE 3.5 mph - N/A   Overcast
4:55 AM 57.2 °F 39.6 °F 52% 30.04 in 10.0 mi Calm Calm - N/A   Overcast
5:15 AM 56.8 °F 40.1 °F 54% 30.04 in 10.0 mi East 5.8 mph - N/A   Overcast
5:35 AM 56.8 °F 40.1 °F 54% 30.03 in 10.0 mi East 5.8 mph - N/A   Overcast
5:55 AM 56.7 °F 40.5 °F 55% 30.02 in 10.0 mi ESE 6.9 mph - N/A   Overcast
6:15 AM 56.7 °F 40.5 °F 55% 30.02 in 10.0 mi ESE 6.9 mph - N/A   Overcast
6:55 AM 55.9 °F 41.5 °F 58% 30.02 in 10.0 mi Calm Calm - N/A   Overcast
7:15 AM 56.1 °F 41.7 °F 58% 30.02 in 10.0 mi SE 3.5 mph - N/A   Overcast
7:35 AM 57.0 °F 42.1 °F 57% 30.02 in 10.0 mi SSE 4.6 mph - N/A   Overcast
7:55 AM 58.3 °F 43.9 °F 59% 30.02 in 10.0 mi South 11.5 mph - N/A   Overcast
8:15 AM 59.0 °F 45.3 °F 60% 30.01 in 10.0 mi South 12.7 mph 16.1 mph N/A   Overcast
8:35 AM 59.4 °F 44.6 °F 58% 30.01 in 10.0 mi SSE 16.1 mph 20.7 mph N/A   Overcast
8:55 AM 60.3 °F 44.6 °F 56% 30.00 in 10.0 mi South 19.6 mph 24.2 mph N/A   Scattered Clouds
9:15 AM 60.8 °F 44.1 °F 54% 30.00 in 10.0 mi South 18.4 mph 26.5 mph N/A   Clear
9:35 AM 62.1 °F 44.1 °F 52% 30.00 in 10.0 mi South 19.6 mph 24.2 mph N/A   Clear
9:55 AM 62.8 °F 44.4 °F 51% 29.99 in 10.0 mi South 19.6 mph 26.5 mph N/A   Clear
10:15 AM 63.7 °F 45.1 °F 51% 29.98 in 10.0 mi South 19.6 mph 27.6 mph N/A   Clear
10:35 AM 65.1 °F 46.2 °F 50% 29.98 in 10.0 mi South 17.3 mph 21.9 mph N/A   Clear
10:55 AM 65.8 °F 46.9 °F 50% 29.98 in 10.0 mi South 18.4 mph 26.5 mph N/A   Clear
11:15 AM 66.9 °F 47.7 °F 50% 29.98 in 10.0 mi South 20.7 mph 24.2 mph N/A   Clear
11:35 AM 68.5 °F 48.0 °F 48% 29.98 in 10.0 mi SSW 13.8 mph 32.2 mph N/A   Clear
11:55 AM 70.0 °F 48.6 °F 46% 29.98 in 10.0 mi South 15.0 mph 24.2 mph N/A   Clear
12:15 PM 70.3 °F 48.4 °F 46% 29.99 in 10.0 mi SW 11.5 mph 18.4 mph N/A   Scattered Clouds
12:35 PM 71.2 °F 48.2 °F 44% 29.98 in 10.0 mi SSW 11.5 mph 18.4 mph N/A   Scattered Clouds
12:55 PM 71.2 °F 47.8 °F 43% 29.98 in 10.0 mi SSW 9.2 mph - N/A   Mostly Cloudy
1:15 PM 73.6 °F 48.2 °F 41% 29.97 in 10.0 mi SW 11.5 mph - N/A   Mostly Cloudy
1:35 PM 73.9 °F 48.0 °F 40% 29.96 in 10.0 mi SSW 12.7 mph 18.4 mph N/A   Mostly Cloudy
1:55 PM 74.1 °F 47.8 °F 39% 29.95 in 10.0 mi SSW 12.7 mph 16.1 mph N/A   Mostly Cloudy
2:15 PM 74.8 °F 48.4 °F 39% 29.94 in 10.0 mi South 13.8 mph 20.7 mph N/A   Mostly Cloudy
2:35 PM 75.4 °F 47.3 °F 37% 29.93 in 10.0 mi South 13.8 mph 17.3 mph N/A   Mostly Cloudy
2:55 PM 76.3 °F 47.5 °F 36% 29.91 in 10.0 mi SE 15.0 mph - N/A   Mostly Cloudy
3:15 PM 78.3 °F 47.3 °F 34% 29.91 in 10.0 mi South 12.7 mph 19.6 mph N/A   Scattered Clouds
3:35 PM 79.9 °F 46.9 °F 31% 29.89 in 10.0 mi SSW 16.1 mph 21.9 mph N/A   Scattered Clouds
3:55 PM 80.2 °F 47.1 °F 31% 29.89 in 10.0 mi South 18.4 mph 21.9 mph N/A   Scattered Clouds
4:15 PM 77.9 °F 47.7 °F 34% 29.88 in 10.0 mi South 9.2 mph 12.7 mph N/A   Mostly Cloudy
4:35 PM 69.8 °F 53.6 °F 56% 29.91 in 10.0 mi North 21.9 mph 27.6 mph N/A Rain Light Rain
4:55 PM 70.3 °F 54.1 °F 56% 29.92 in 10.0 mi North 24.2 mph 29.9 mph N/A   Scattered Clouds
5:15 PM 69.4 °F 54.5 °F 59% 29.94 in 10.0 mi North 26.5 mph 32.2 mph N/A   Clear
5:35 PM 68.2 °F 54.7 °F 62% 29.95 in 10.0 mi North 21.9 mph 29.9 mph N/A   Scattered Clouds
5:55 PM 67.3 °F 54.3 °F 63% 29.97 in 10.0 mi North 17.3 mph 31.1 mph N/A   Scattered Clouds
6:15 PM 65.7 °F 54.1 °F 66% 29.98 in 10.0 mi NNE 26.5 mph 34.5 mph N/A   Clear
6:35 PM 64.0 °F 54.0 °F 70% 29.99 in 10.0 mi North 23.0 mph 34.5 mph N/A   Clear
6:55 PM 63.0 °F 53.6 °F 71% 30.01 in 10.0 mi North 20.7 mph 33.4 mph N/A   Clear
7:15 PM 61.5 °F 53.2 °F 74% 30.03 in 10.0 mi NNE 15.0 mph 35.7 mph N/A   Scattered Clouds
7:35 PM 60.3 °F 52.9 °F 77% 30.05 in 10.0 mi North 15.0 mph 27.6 mph N/A   Mostly Cloudy
7:55 PM 59.4 °F 52.9 °F 79% 30.07 in 10.0 mi North 19.6 mph 25.3 mph N/A   Overcast
8:15 PM 58.6 °F 52.7 °F 81% 30.07 in 10.0 mi North 12.7 mph 23.0 mph N/A   Overcast
8:35 PM 58.1 °F 52.9 °F 83% 30.08 in 10.0 mi North 10.4 mph 17.3 mph N/A   Overcast
8:55 PM 57.4 °F 52.7 °F 84% 30.09 in 10.0 mi NE 8.1 mph - N/A   Mostly Cloudy
9:15 PM 56.3 °F 52.2 °F 86% 30.09 in 10.0 mi NE 9.2 mph - N/A   Scattered Clouds
9:35 PM 55.6 °F 52.0 °F 88% 30.10 in 10.0 mi NNE 6.9 mph - N/A   Clear
9:55 PM 54.9 °F 51.8 °F 89% 30.12 in 10.0 mi North 5.8 mph - N/A   Clear
10:15 PM 55.0 °F 52.2 °F 90% 30.13 in 10.0 mi NNW 5.8 mph - N/A   Mostly Cloudy
10:35 PM 55.6 °F 52.2 °F 88% 30.14 in 10.0 mi NNW 8.1 mph - N/A   Overcast
10:55 PM 56.3 °F 52.0 °F 85% 30.15 in 10.0 mi NNW 6.9 mph - N/A   Overcast
11:15 PM 55.9 °F 52.0 °F 87% 30.16 in 10.0 mi NW 9.2 mph - N/A   Overcast
11:35 PM 56.3 °F 52.2 °F 86% 30.16 in 10.0 mi NNW 9.2 mph - N/A   Overcast
11:55 PM 54.9 °F 51.8 °F 89% 30.16 in 10.0 mi NNW 4.6 mph - N/A   Mostly Cloudy